Date,TemperatureHighF,TemperatureAvgF,TemperatureLowF,DewpointHighF,DewpointAvgF,DewpointLowF,HumidityHigh,HumidityAvg,HumidityLow,PressureMaxIn,PressureMinIn,WindSpeedMaxMPH,WindSpeedAvgMPH,GustSpeedMaxMPH,PrecipitationSumIn
2013-1-1,68.7,60.9,50.3,67.0,56.6,44.0,94,86,74,30.16,29.83,24,10,31,0.03
2013-1-2,50.3,44.2,41.6,44.0,39.7,37.0,90,84,76,30.30,30.12,16,9,25,0.35
2013-1-3,48.6,45.6,43.0,38.0,36.8,34.0,81,72,58,30.37,30.26,18,10,24,0.00
2013-1-4,49.2,47.7,44.8,43.0,39.6,38.0,91,73,67,30.41,30.31,22,12,26,0.01
2013-1-5,49.1,47.0,45.2,46.0,42.2,38.0,92,83,69,30.33,30.23,20,9,25,0.01
2013-1-6,59.1,51.5,46.1,47.0,45.0,42.0,89,79,59,30.35,30.24,12,7,16,0.00
2013-1-7,58.6,53.7,46.2,57.0,50.3,42.0,95,88,77,30.29,29.97,16,8,22,0.02
2013-1-8,67.5,62.6,57.8,66.0,61.1,57.0,96,95,89,29.96,29.77,21,9,25,0.15
2013-1-9,68.4,62.3,58.6,67.0,60.4,57.0,96,93,89,30.02,29.75,21,7,40,0.80
2013-1-10,61.6,58.5,54.0,58.0,53.0,48.0,95,83,62,30.11,30.01,10,5,15,0.00
2013-1-11,70.1,63.6,56.2,67.0,61.9,55.0,97,94,88,30.01,29.80,12,6,20,0.00
2013-1-12,68.8,66.5,64.4,67.0,65.5,64.0,97,96,93,29.83,29.64,21,12,30,0.00
2013-1-13,67.7,54.6,47.5,67.0,46.5,39.0,97,76,52,30.07,29.69,29,11,32,0.02
2013-1-14,50.6,45.9,43.3,44.0,40.4,37.0,93,81,67,30.16,30.04,18,9,24,0.00
2013-1-15,46.5,44.0,41.8,45.0,41.3,37.0,94,90,82,30.20,30.01,19,10,27,0.09
2013-1-16,56.5,46.8,40.0,37.0,28.8,18.0,80,53,22,30.37,30.21,21,9,26,0.00
2013-1-17,62.3,50.5,41.2,47.0,37.0,28.0,86,62,37,30.45,30.30,12,4,14,0.00
2013-1-18,60.6,53.4,46.1,51.0,48.1,43.0,91,83,66,30.49,30.30,13,5,16,0.00
2013-1-19,67.2,59.3,52.5,55.0,52.3,50.0,92,79,55,30.30,30.15,11,4,14,0.00
2013-1-20,67.5,59.9,53.2,58.0,54.8,51.0,94,83,68,30.24,30.09,11,4,14,0.00
2013-1-21,65.6,60.3,55.7,59.0,56.1,54.0,93,86,75,30.22,30.09,10,4,13,0.00
2013-1-22,68.6,61.5,56.2,58.0,55.9,53.0,91,82,63,30.29,30.15,13,4,14,0.00
2013-1-23,70.9,63.8,58.0,64.0,60.5,56.0,94,89,79,30.32,30.21,12,5,15,0.00
2013-1-24,69.9,63.5,59.3,64.0,60.8,58.0,95,91,79,30.28,30.13,21,8,21,0.00
2013-1-25,68.6,63.7,59.6,63.0,61.1,59.0,96,91,83,30.15,30.03,15,10,24,0.02
2013-1-26,70.0,64.5,61.1,64.0,61.4,60.0,96,90,78,30.13,30.03,13,8,20,0.00
2013-1-27,69.2,65.0,61.9,66.0,63.2,60.0,96,94,88,30.07,29.95,18,9,23,0.01
2013-1-28,70.7,66.6,64.4,66.0,64.7,63.0,96,93,84,30.05,29.90,23,11,25,0.00
2013-1-29,73.6,66.9,63.5,70.0,64.4,49.0,97,92,48,29.90,29.58,28,15,33,0.00
2013-1-30,68.2,62.1,54.5,48.0,28.2,15.0,49,29,14,30.22,29.73,25,12,40,0.00
2013-1-31,65.0,58.2,47.0,52.0,38.8,27.0,80,51,26,30.32,30.21,14,6,18,0.00
2013-2-1,68.1,62.4,57.3,57.0,53.4,49.0,89,73,55,30.34,30.19,13,4,15,0.00
2013-2-2,71.1,64.4,60.5,62.0,59.1,56.0,93,83,68,30.22,30.14,12,5,14,0.00
2013-2-3,67.4,62.7,58.0,61.0,59.4,57.0,95,89,73,30.28,30.01,14,6,15,0.01
2013-2-4,71.5,65.9,63.0,65.0,62.3,59.0,93,88,79,30.00,29.78,15,8,20,0.00
2013-2-5,71.8,66.2,62.1,67.0,64.1,61.0,96,93,83,29.94,29.84,13,6,16,0.01
2013-2-6,69.0,65.5,62.8,68.0,64.3,61.0,97,95,91,29.98,29.79,23,9,31,0.69
2013-2-7,72.4,65.9,63.5,68.0,63.9,62.0,96,93,85,29.97,29.85,8,4,11,0.00
2013-2-8,68.2,33.2,58.3,62.0,-18.6,-99.9,95,39,54,30.16,29.97,23,-468,27,0.00
2013-2-9,69.9,24.8,65.4,67.0,-39.9,-99.9,95,33,87,30.05,29.78,24,-633,24,0.00
2013-2-10,75.6,32.6,64.5,69.0,-23.6,-99.9,96,38,71,29.89,29.73,22,-531,25,0.00
2013-2-11,63.1,25.5,61.1,60.0,-34.5,-99.9,95,37,83,29.95,29.85,24,-583,30,0.00
2013-2-12,67.7,29.7,60.3,61.0,-25.3,-99.9,97,41,73,29.95,29.79,14,-517,19,0.00
2013-2-13,59.4,29.8,52.7,46.0,-23.2,-99.9,73,34,52,30.15,29.95,19,-458,23,0.00
2013-2-14,63.4,31.6,53.2,50.0,-23.7,-99.9,71,31,52,30.14,30.03,10,-464,14,0.00
2013-2-15,67.0,32.9,59.4,56.0,-21.2,-99.9,82,35,54,30.28,30.04,21,-479,25,0.00
2013-2-16,60.3,30.0,48.6,39.0,-31.3,-99.9,56,22,28,30.46,30.26,13,-458,21,0.00
2013-2-17,67.0,30.1,57.5,55.0,-28.3,-99.9,73,31,61,30.26,29.98,18,-525,24,0.00
2013-2-18,70.8,24.0,65.9,64.0,-42.7,-99.9,88,29,79,29.99,29.84,21,-644,28,0.00
2013-2-19,65.6,31.3,61.2,57.0,-24.0,-99.9,79,35,63,30.18,29.97,25,-498,28,0.00
2013-2-20,69.7,20.2,65.1,66.0,-50.8,-99.9,93,27,86,29.99,29.66,14,-698,21,0.00
2013-2-21,78.4,47.8,65.5,69.0,10.7,-99.9,94,53,55,29.79,29.58,21,-316,31,0.00
2013-2-22,67.8,65.2,61.0,60.0,53.6,48.0,83,67,49,29.91,29.77,25,13,30,0.00
2013-2-23,68.6,59.5,54.6,56.0,50.1,45.0,87,72,53,30.00,29.86,18,8,25,0.00
2013-2-24,67.5,63.4,58.1,66.0,60.8,54.0,96,91,83,29.89,29.59,13,5,16,0.00
2013-2-25,71.0,65.6,57.1,67.0,42.2,17.0,97,53,13,29.87,29.51,36,16,47,0.01
2013-2-26,64.7,57.0,47.3,53.0,37.4,28.0,77,49,27,30.00,29.85,20,8,29,0.00
2013-2-27,73.9,63.3,53.5,59.0,49.2,34.0,92,63,25,30.16,29.86,19,7,24,0.00
2013-2-28,59.4,54.8,50.6,40.0,32.6,27.0,60,44,30,30.29,30.16,21,10,26,0.00
2013-3-1,63.5,58.0,50.9,49.0,38.4,26.0,73,50,24,30.27,30.13,15,6,21,0.00
2013-3-2,64.5,57.2,49.9,50.0,36.0,26.0,82,49,24,30.40,30.22,19,8,25,0.00
2013-3-3,66.2,59.6,48.2,55.0,47.1,36.0,78,64,45,30.27,30.00,22,10,29,0.00
2013-3-4,70.8,65.9,62.5,62.0,59.6,56.0,91,80,70,29.99,29.75,29,18,35,0.00
2013-3-5,69.3,63.8,56.9,62.0,48.0,33.0,92,61,32,30.28,29.79,26,12,34,0.00
2013-3-6,59.8,55.4,49.1,51.0,40.1,30.0,74,57,42,30.41,30.21,18,10,25,0.00
2013-3-7,69.6,64.9,59.8,62.0,58.5,51.0,89,80,72,30.21,30.09,16,9,23,0.00
2013-3-8,71.4,66.9,65.0,66.0,63.4,62.0,91,88,81,30.10,29.99,19,10,24,0.00
2013-3-9,70.8,67.6,66.1,65.0,64.5,64.0,93,89,83,29.99,29.66,26,13,33,0.00
2013-3-10,71.7,67.2,59.9,67.0,55.8,40.0,94,70,35,30.04,29.58,28,12,35,0.03
2013-3-11,70.9,61.4,52.5,50.0,36.5,24.0,68,43,18,30.15,29.98,23,8,28,0.00
2013-3-12,67.9,62.5,53.9,55.0,49.0,43.0,80,62,50,30.21,30.05,13,6,16,0.00
2013-3-13,65.8,37.3,58.2,59.0,-7.5,-99.9,90,47,70,30.39,30.20,16,-403,21,0.00
2013-3-14,70.7,41.3,61.3,61.0,-4.3,-99.9,87,45,66,30.37,30.24,18,-383,21,0.00
2013-3-15,70.5,36.2,63.7,63.0,-13.9,-99.9,89,43,75,30.26,30.04,20,-461,26,0.00
2013-3-16,71.9,35.8,65.5,65.0,-15.2,-99.9,90,43,76,30.04,29.80,21,-476,27,0.00
2013-3-17,72.3,37.3,68.1,67.0,-11.8,-99.9,92,46,83,29.83,29.65,15,-464,23,0.00
2013-3-18,72.8,33.5,68.5,68.0,-21.1,-99.9,92,41,82,29.84,29.70,18,-522,18,0.00
2013-3-19,73.5,31.8,66.6,68.0,-24.5,-99.9,95,40,80,29.95,29.79,13,-543,18,0.00
2013-3-20,69.5,31.0,64.5,60.0,-28.2,-99.9,80,31,61,30.12,29.86,28,-534,36,0.00
2013-3-21,70.6,33.4,66.1,65.0,-20.9,-99.9,86,40,77,30.03,29.66,15,-511,20,0.00
2013-3-22,73.3,30.4,68.4,69.0,-29.8,-99.9,94,38,86,29.72,29.61,14,-567,19,0.00
2013-3-23,75.9,33.0,65.5,72.0,-22.4,-99.9,97,41,77,29.67,29.56,13,-534,18,0.00
2013-3-24,67.2,26.1,61.5,36.0,-48.5,-99.9,39,10,20,30.11,29.64,23,-591,31,0.00
2013-3-25,58.1,28.5,50.1,37.0,-32.8,-99.9,53,21,27,30.32,30.09,21,-482,28,0.00
2013-3-26,61.6,31.5,56.1,37.0,-29.6,-99.9,47,20,28,30.44,30.32,21,-466,25,0.00
2013-3-27,65.8,22.3,62.2,54.0,-47.7,-99.9,69,21,56,30.32,30.17,20,-648,25,0.00
2013-3-28,70.2,30.5,65.3,63.0,-27.0,-99.9,86,37,77,30.19,30.12,15,-546,19,0.00
2013-3-29,71.8,28.8,65.5,65.0,-32.0,-99.9,91,34,77,30.16,30.04,18,-581,21,0.00
2013-3-30,73.4,30.1,66.6,68.0,-28.9,-99.9,92,37,82,30.09,29.92,21,-568,22,0.00
2013-3-31,73.6,28.0,67.3,69.0,-34.1,-99.9,96,35,84,29.95,29.77,21,-602,24,0.00
2013-4-1,71.7,28.5,67.7,68.0,-31.8,-99.9,96,37,86,30.00,29.88,18,-588,24,0.01
2013-4-2,73.4,24.0,69.1,69.0,-43.1,-99.9,95,30,86,29.97,29.75,14,-659,21,0.00
2013-4-3,73.4,27.0,64.9,64.0,-36.7,-99.9,84,30,69,30.07,29.78,21,-603,25,0.00
2013-4-4,73.6,25.7,55.8,50.0,-41.6,-99.9,81,22,37,30.16,30.03,18,-602,21,0.00
2013-4-5,62.5,28.7,53.2,54.0,-27.7,-99.9,81,35,69,30.26,30.07,16,-519,16,0.00
2013-4-6,72.0,33.0,66.2,63.0,-23.4,-99.9,82,36,73,30.08,29.88,21,-522,26,0.00
2013-4-7,74.7,37.3,67.7,66.0,-14.2,-99.9,88,41,75,29.92,29.79,21,-474,28,0.00
2013-4-8,74.4,28.5,69.5,69.0,-33.8,-99.9,92,34,83,29.80,29.65,24,-601,28,0.00
2013-4-9,76.0,35.3,69.4,71.0,-24.6,-99.9,89,38,83,29.71,29.56,26,-514,31,0.00
2013-4-10,76.2,25.5,58.8,71.0,-39.3,-99.9,93,31,77,29.80,29.60,27,-628,30,0.00
2013-4-11,67.0,36.0,48.8,54.0,-14.0,-99.9,81,37,43,29.94,29.78,20,-392,29,0.28
2013-4-12,70.4,37.3,62.4,62.0,-12.0,-99.9,85,42,71,29.95,29.85,21,-444,25,0.00
2013-4-13,72.4,32.5,66.6,65.0,-24.7,-99.9,89,36,73,29.92,29.71,21,-535,26,0.00
2013-4-14,75.4,40.3,68.7,70.0,-6.5,-99.9,97,48,82,29.76,29.65,16,-440,25,0.00
2013-4-15,75.9,35.0,70.8,71.0,-22.0,-99.9,91,39,84,29.80,29.68,19,-524,22,0.00
2013-4-16,76.0,23.3,73.0,71.0,-46.2,-99.9,91,28,84,29.85,29.74,19,-681,22,0.00
2013-4-17,76.4,26.0,72.6,73.0,-40.2,-99.9,94,31,87,29.84,29.63,19,-658,24,0.00
2013-4-18,76.9,23.6,60.8,73.0,-43.3,-99.9,94,29,70,30.01,29.61,26,-637,34,0.00
2013-4-19,63.1,6.9,57.8,46.0,-84.0,-99.9,65,6,42,30.30,30.02,12,-875,13,0.00
2013-4-20,68.6,31.7,64.6,55.0,-31.9,-99.9,68,23,40,30.19,30.01,20,-520,22,0.00
2013-4-21,71.2,3.0,70.6,65.0,-93.0,-99.9,81,3,76,30.09,29.99,16,-956,18,0.00
2013-4-22,73.7,6.0,69.3,68.0,-86.0,-99.9,87,7,82,30.06,29.90,16,-915,19,0.00
2013-4-23,72.7,9.2,70.0,70.0,-79.9,-99.9,93,11,89,29.93,29.81,15,-869,20,0.00
2013-4-24,62.1,8.4,52.3,54.0,-79.0,-99.9,97,12,73,30.17,29.92,27,-850,32,0.03
2013-4-25,62.6,3.3,61.8,59.0,-93.3,-99.9,89,4,73,30.23,30.11,19,-946,26,0.00
2013-4-26,75.4,29.3,69.7,71.0,-32.0,-99.9,95,36,85,30.15,30.01,20,-595,23,0.00
2013-4-27,77.5,24.3,70.0,72.0,-44.7,-99.9,97,28,82,30.05,29.90,16,-673,22,0.00
2013-4-28,75.0,6.7,68.7,69.0,-85.8,-99.9,91,7,82,29.99,29.81,11,-904,20,0.00
2013-4-29,75.0,12.1,68.9,71.0,-71.7,-99.9,95,15,87,29.91,29.76,13,-820,21,0.51
2013-4-30,76.9,47.7,70.8,71.0,7.8,-99.9,93,55,76,29.81,29.69,14,-348,19,0.01
2013-5-1,80.0,74.1,70.1,73.0,70.7,69.0,97,89,77,29.87,29.72,13,6,16,0.00
2013-5-2,80.5,69.6,55.8,70.0,61.0,44.0,96,75,55,30.23,29.82,16,6,27,0.03
2013-5-3,70.8,60.8,52.6,44.0,32.9,26.0,67,38,19,30.29,30.07,22,8,26,0.00
2013-5-4,75.6,66.8,57.4,52.0,43.7,35.0,66,44,30,30.09,29.89,11,4,15,0.00
2013-5-5,76.3,68.9,59.9,59.0,55.7,52.0,87,64,48,30.07,29.93,15,5,19,0.00
2013-5-6,77.0,70.5,61.8,61.0,58.2,56.0,86,66,54,30.10,29.95,13,4,19,0.00
2013-5-7,78.5,72.4,65.6,66.0,62.3,60.0,83,71,58,30.05,29.94,12,5,15,0.00
2013-5-8,79.1,74.1,70.4,70.0,67.7,66.0,91,81,68,30.00,29.90,13,6,19,0.00
2013-5-9,77.9,74.4,72.3,73.0,71.3,70.0,93,90,83,29.93,29.79,11,5,16,0.00
2013-5-10,75.3,73.6,72.2,73.0,71.5,70.0,95,93,89,29.92,29.79,13,6,18,0.00
2013-5-11,79.3,74.2,69.6,71.0,68.1,66.0,94,82,64,30.04,29.90,14,7,22,0.15
2013-5-12,75.2,71.7,65.7,71.0,64.8,60.0,93,79,63,30.13,30.00,14,8,24,0.51
2013-5-13,78.0,73.2,66.2,68.0,65.0,62.0,89,76,59,30.24,30.12,16,7,19,0.00
2013-5-14,81.1,75.3,71.4,72.0,69.2,66.0,88,81,72,30.20,30.04,12,6,16,0.00
2013-5-15,78.9,75.1,72.8,74.0,71.5,70.0,94,88,82,30.09,29.86,11,6,19,0.50
2013-5-16,81.9,76.7,73.1,74.0,72.3,70.0,92,86,77,29.89,29.73,18,6,22,0.00
2013-5-17,83.4,77.6,73.6,75.0,73.3,71.0,93,87,74,29.89,29.77,13,6,19,0.00
2013-5-18,84.0,77.9,74.9,75.0,73.7,72.0,94,87,72,29.90,29.81,12,6,16,0.00
2013-5-19,83.6,78.3,75.1,75.0,73.7,73.0,93,86,75,29.86,29.73,8,5,16,0.00
2013-5-20,83.5,77.9,74.8,76.0,74.0,73.0,93,88,77,29.82,29.70,12,6,16,0.00
2013-5-21,84.2,76.8,75.0,76.0,71.0,-99.9,95,86,75,29.78,29.68,11,-15,15,0.00
2013-5-22,83.0,75.7,75.3,77.0,70.8,-99.9,96,90,81,29.86,29.75,13,-21,18,0.00
2013-5-23,84.4,79.6,75.8,78.0,76.0,74.0,96,89,79,29.97,29.83,12,6,16,0.00
2013-5-24,84.7,79.8,77.3,77.0,75.7,75.0,94,87,75,30.07,29.93,16,8,21,0.00
2013-5-25,83.4,79.2,77.4,77.0,75.3,74.0,92,88,78,30.07,29.98,18,8,20,0.00
2013-5-26,85.1,79.7,76.5,75.0,73.4,72.0,89,81,69,30.06,29.95,13,7,19,0.00
2013-5-27,86.5,80.6,76.9,76.0,74.4,72.0,91,82,69,29.99,29.85,14,7,20,0.00
2013-5-28,86.6,81.5,77.9,77.0,75.3,74.0,89,81,71,29.90,29.77,15,9,24,0.00
2013-5-29,84.6,80.2,77.9,77.0,75.6,74.0,90,85,77,29.83,29.70,19,8,28,0.00
2013-5-30,86.5,81.6,78.2,78.0,76.5,75.0,91,85,74,29.81,29.73,16,8,21,0.00
2013-5-31,87.6,82.4,78.7,78.0,76.9,76.0,92,84,72,29.86,29.76,14,7,21,0.00
2013-6-1,88.6,82.9,79.7,78.0,76.9,76.0,89,82,70,29.86,29.77,15,8,23,0.00
2013-6-2,87.1,80.9,73.9,79.0,74.9,71.0,93,82,64,30.00,29.83,14,5,20,0.18
2013-6-3,86.1,80.5,74.9,74.0,72.0,69.0,87,76,65,29.93,29.81,12,6,15,0.00
2013-6-4,86.2,80.6,73.7,74.0,71.6,70.0,91,75,61,29.87,29.78,12,5,15,0.00
2013-6-5,87.9,82.7,76.8,76.0,74.2,72.0,86,76,65,29.85,29.76,14,6,19,0.00
2013-6-6,89.2,83.1,76.9,77.0,75.1,73.0,89,77,62,29.83,29.72,12,4,15,0.00
2013-6-7,87.4,80.6,72.2,77.0,73.7,68.0,91,80,63,29.90,29.80,19,7,22,0.08
2013-6-8,88.6,81.9,76.9,77.0,74.4,71.0,87,78,66,29.88,29.76,12,5,19,0.00
2013-6-9,90.1,84.7,81.1,78.0,76.1,73.0,87,76,58,29.90,29.79,15,7,19,0.00
2013-6-10,89.7,84.5,80.2,78.0,76.4,75.0,85,77,67,29.94,29.88,14,6,18,0.00
2013-6-11,90.0,84.2,80.2,78.0,75.4,73.0,83,75,64,30.00,29.91,11,5,14,0.00
2013-6-12,89.1,83.7,78.6,79.0,76.7,74.0,89,79,66,30.01,29.93,13,6,18,0.34
2013-6-13,88.4,83.7,81.5,79.0,77.2,75.0,86,81,70,30.00,29.89,14,5,18,0.00
2013-6-14,89.2,83.5,81.3,80.0,77.5,76.0,87,82,72,29.95,29.85,13,5,20,0.00
2013-6-15,89.8,84.4,80.9,77.0,75.9,74.0,86,76,64,29.95,29.86,19,7,25,0.41
2013-6-16,88.1,83.4,81.0,78.0,75.4,73.0,82,77,70,29.98,29.89,21,14,28,0.00
2013-6-17,87.9,83.5,80.9,78.0,75.9,74.0,84,78,71,29.96,29.85,25,15,29,0.00
2013-6-18,86.9,82.9,79.2,76.0,75.3,74.0,85,78,69,29.95,29.85,20,12,24,0.00
2013-6-19,86.9,82.6,78.6,76.0,75.2,74.0,88,78,69,29.97,29.88,20,11,23,0.00
2013-6-20,87.4,82.9,79.4,78.0,76.1,75.0,87,80,70,30.02,29.92,19,10,22,0.00
2013-6-21,87.8,82.4,78.9,78.0,76.0,75.0,88,81,69,30.05,29.96,15,9,19,0.00
2013-6-22,87.3,82.4,78.7,77.0,75.9,75.0,90,81,69,30.01,29.90,18,10,22,0.00
2013-6-23,87.5,82.1,77.5,77.0,75.5,74.0,90,80,69,29.97,29.88,20,10,24,0.00
2013-6-24,86.3,82.2,79.3,77.0,76.0,75.0,88,81,72,30.00,29.91,19,12,25,0.00
2013-6-25,86.1,81.6,78.6,77.0,75.9,75.0,89,83,74,29.98,29.88,21,12,27,0.00
2013-6-26,87.4,81.7,78.5,78.0,76.4,75.0,91,84,73,29.95,29.89,20,11,25,0.00
2013-6-27,86.2,81.6,77.6,77.0,76.0,75.0,91,83,72,29.98,29.89,18,9,21,0.00
2013-6-28,86.2,81.4,77.1,77.0,76.2,75.0,93,84,73,29.96,29.81,16,10,24,0.00
2013-6-29,86.1,81.2,76.2,77.0,75.2,73.0,91,82,66,29.85,29.70,19,12,27,0.00
2013-6-30,85.0,79.5,72.5,75.0,71.3,68.0,92,76,58,29.91,29.73,21,8,44,1.06
2013-7-1,87.8,80.8,75.7,77.0,70.8,59.0,90,73,39,29.93,29.81,21,7,24,0.00
2013-7-2,87.8,81.5,77.8,75.0,69.4,61.0,87,68,42,30.01,29.91,15,6,20,0.00
2013-7-3,85.3,79.6,74.7,74.0,71.6,68.0,88,77,59,29.99,29.88,15,6,20,0.00
2013-7-4,86.2,80.7,74.6,75.0,73.1,71.0,90,78,65,29.96,29.86,13,5,16,0.00
2013-7-5,86.1,81.9,77.4,75.0,74.0,71.0,90,77,62,29.93,29.82,13,6,18,0.00
2013-7-6,86.1,81.8,78.3,78.0,75.8,73.0,91,82,70,29.89,29.80,16,7,22,0.00
2013-7-7,86.4,81.8,79.6,76.0,74.8,73.0,87,79,65,29.96,29.84,23,10,27,0.00
2013-7-8,87.0,82.6,78.2,78.0,76.3,72.0,87,81,73,30.07,29.94,20,11,25,0.00
2013-7-9,87.5,83.4,80.5,79.0,77.1,76.0,89,81,72,30.09,30.00,20,9,22,0.00
2013-7-10,86.9,83.6,80.6,77.0,76.3,74.0,85,78,70,30.05,29.93,20,10,22,0.00
2013-7-11,87.3,83.4,80.3,76.0,75.5,74.0,84,77,67,29.98,29.88,19,11,24,0.00
2013-7-12,87.2,83.0,78.8,76.0,74.5,73.0,85,76,68,29.92,29.87,18,9,24,0.00
2013-7-13,86.8,82.8,77.4,76.0,74.3,73.0,88,76,64,29.94,29.85,15,8,21,0.00
2013-7-14,87.5,82.7,77.6,76.0,75.1,73.0,87,78,68,29.91,29.81,20,11,27,0.00
2013-7-15,87.0,83.4,81.5,77.0,75.5,73.0,83,77,72,29.94,29.83,23,13,25,0.00
2013-7-16,85.6,81.1,75.5,77.0,74.4,71.0,90,80,71,30.01,29.90,23,12,28,0.55
2013-7-17,82.3,77.9,73.0,77.0,73.5,70.0,93,86,79,30.11,30.00,18,7,30,1.33
2013-7-18,85.0,80.1,74.0,76.0,74.2,71.0,91,82,71,30.09,29.94,15,7,29,0.16
2013-7-19,86.5,82.9,78.8,76.0,75.0,74.0,85,77,69,30.01,29.89,22,8,22,0.00
2013-7-20,86.2,83.2,80.8,77.0,75.4,74.0,83,77,70,29.95,29.84,19,9,24,0.00
2013-7-21,88.0,84.5,82.1,79.0,77.5,76.0,85,79,69,29.94,29.86,22,14,28,0.00
2013-7-22,88.5,84.6,82.5,79.0,77.8,77.0,85,80,70,29.97,29.89,28,18,32,0.00
2013-7-23,87.4,84.0,81.9,78.0,76.1,74.0,83,77,70,29.99,29.88,28,18,33,0.00
2013-7-24,88.0,83.7,81.4,77.0,76.2,75.0,84,78,67,29.95,29.85,24,15,29,0.00
2013-7-25,87.9,83.9,81.3,79.0,77.1,75.0,84,80,73,29.99,29.93,22,12,25,0.00
2013-7-26,87.3,83.8,81.2,79.0,77.2,76.0,85,80,76,30.01,29.89,24,16,33,0.00
2013-7-27,86.4,82.6,80.0,78.0,77.0,76.0,90,83,73,29.93,29.80,28,16,30,0.00
2013-7-28,86.6,82.7,79.8,78.0,77.5,77.0,91,84,75,29.91,29.84,21,13,27,0.00
2013-7-29,87.4,82.6,79.7,78.0,77.1,76.0,90,83,72,30.03,29.91,20,13,26,0.00
2013-7-30,86.6,82.1,79.0,78.0,77.2,76.0,91,85,76,30.07,29.98,20,11,24,0.00
2013-7-31,86.3,82.0,77.9,79.0,76.9,75.0,90,84,75,30.06,29.94,18,8,20,0.00
2013-8-1,85.9,82.1,78.0,77.0,76.7,76.0,92,84,73,29.99,29.90,15,8,19,0.00
2013-8-2,87.1,82.5,78.2,77.0,76.5,75.0,91,82,70,29.96,29.88,18,8,20,0.00
2013-8-3,87.4,83.3,79.4,79.0,77.6,75.0,91,83,74,29.99,29.92,15,9,22,0.00
2013-8-4,87.5,83.3,80.7,79.0,78.0,77.0,90,84,75,30.03,29.94,19,10,26,0.00
2013-8-5,86.9,82.9,80.1,79.0,77.6,77.0,91,84,73,30.01,29.89,25,12,28,0.00
2013-8-6,87.1,82.5,79.6,78.0,77.4,77.0,91,85,74,29.93,29.83,24,14,29,0.00
2013-8-7,87.0,81.9,78.8,78.0,77.0,76.0,91,85,75,29.91,29.80,22,13,26,0.00
2013-8-8,86.3,81.4,77.8,79.0,77.0,76.0,93,86,77,29.89,29.80,19,10,23,0.00
2013-8-9,87.1,81.8,77.3,79.0,76.4,74.0,94,84,67,29.93,29.84,14,6,16,0.00
2013-8-10,86.7,82.6,79.9,80.0,78.0,75.0,93,86,71,29.98,29.90,18,7,22,0.00
2013-8-11,86.2,82.0,77.1,79.0,76.5,73.0,92,84,71,30.01,29.94,19,6,23,0.18
2013-8-12,86.2,82.6,78.1,79.0,77.4,75.0,91,84,75,30.04,29.94,16,7,19,0.00
2013-8-13,87.5,83.6,80.6,79.0,77.9,77.0,90,83,73,30.01,29.88,19,10,26,0.00
2013-8-14,87.8,82.9,79.0,78.0,76.8,75.0,92,82,69,29.96,29.87,20,11,24,0.00
2013-8-15,86.8,82.4,77.6,79.0,76.6,74.0,91,82,74,29.95,29.88,18,9,23,0.00
2013-8-16,87.8,83.5,77.3,79.0,77.0,73.0,88,81,69,29.98,29.85,16,8,30,0.14
2013-8-17,85.1,81.5,77.7,76.0,74.5,71.0,90,79,70,29.97,29.88,16,9,24,0.00
2013-8-18,86.8,82.7,78.5,76.0,73.1,68.0,87,73,54,30.00,29.91,20,7,21,0.00
2013-8-19,87.4,83.1,79.7,75.0,73.4,72.0,81,73,62,30.00,29.89,19,8,19,0.00
2013-8-20,82.0,79.5,74.2,76.0,74.3,71.0,92,84,78,30.00,29.89,18,8,21,0.83
2013-8-21,88.0,83.8,81.4,78.0,76.9,76.0,86,80,70,30.01,29.94,15,8,20,0.00
2013-8-22,87.0,83.2,80.4,77.0,76.0,74.0,87,79,67,30.02,29.89,14,6,16,0.00
2013-8-23,87.8,84.2,80.9,77.0,75.9,74.0,83,76,66,29.96,29.86,18,7,21,0.00
2013-8-24,87.0,84.3,80.8,78.0,76.5,74.0,84,77,67,29.97,29.89,24,9,26,0.00
2013-8-25,87.1,83.8,80.7,78.0,76.5,75.0,88,79,70,30.01,29.93,20,9,23,0.00
2013-8-26,83.1,79.4,75.4,77.0,74.6,72.0,93,85,76,30.05,29.96,14,6,21,1.83
2013-8-27,87.9,84.1,80.6,78.0,76.5,74.0,86,78,68,30.04,29.95,18,10,35,0.05
2013-8-28,86.9,83.4,79.9,77.0,75.3,73.0,83,77,67,30.05,29.96,15,7,24,0.01
2013-8-29,88.7,84.6,81.0,76.0,75.3,74.0,82,74,63,30.04,29.94,13,7,19,0.00
2013-8-30,87.9,83.7,78.7,76.0,74.7,72.0,89,75,63,30.00,29.89,13,7,18,0.00
2013-8-31,88.2,83.4,77.9,76.0,74.4,72.0,86,74,65,29.93,29.82,16,9,22,0.00
2013-9-1,88.6,84.5,79.3,78.0,76.0,74.0,86,76,68,29.89,29.81,19,10,25,0.00
2013-9-2,88.5,84.8,81.2,78.0,76.5,74.0,83,76,66,29.93,29.83,20,10,23,0.00
2013-9-3,87.9,84.1,79.5,77.0,75.8,75.0,89,76,66,29.97,29.87,13,6,18,0.00
2013-9-4,88.3,83.8,78.9,77.0,75.4,73.0,88,76,64,30.00,29.91,14,7,19,0.00
2013-9-5,88.4,84.6,82.6,77.0,75.7,74.0,80,75,66,30.02,29.94,15,8,20,0.00
2013-9-6,87.1,83.8,80.3,77.0,75.4,73.0,82,76,66,30.02,29.92,15,6,24,0.05
2013-9-7,85.5,82.1,77.8,76.0,75.1,74.0,88,79,72,29.98,29.88,15,6,20,0.07
2013-9-8,85.0,81.3,78.5,76.0,74.3,73.0,86,79,72,29.93,29.84,18,7,24,0.09
2013-9-9,86.7,82.3,77.1,76.0,74.1,72.0,89,76,65,29.91,29.83,25,12,30,0.09
2013-9-10,86.4,81.3,75.9,78.0,74.9,72.0,91,81,70,29.98,29.88,19,10,28,0.74
2013-9-11,86.5,82.8,74.9,78.0,75.4,71.0,88,78,71,30.00,29.93,16,9,31,0.33
2013-9-12,87.4,83.6,80.0,76.0,74.4,71.0,82,74,64,29.97,29.87,19,9,24,0.00
2013-9-13,86.3,82.2,76.3,78.0,74.9,72.0,92,79,67,29.89,29.77,16,9,25,0.85
2013-9-14,87.2,83.5,78.1,77.0,75.5,72.0,85,77,67,29.85,29.77,22,11,25,0.16
2013-9-15,87.3,83.5,78.4,77.0,76.0,74.0,88,78,70,29.90,29.80,24,15,31,0.09
2013-9-16,86.1,81.9,76.5,78.0,76.2,74.0,93,82,76,29.93,29.84,26,14,35,1.09
2013-9-17,87.8,83.5,77.5,78.0,76.2,72.0,86,78,70,29.96,29.87,24,11,31,0.12
2013-9-18,86.3,82.8,79.9,78.0,75.8,73.0,86,79,73,29.95,29.84,16,10,23,0.00
2013-9-19,87.1,83.5,80.5,78.0,76.8,75.0,88,80,70,29.88,29.77,15,9,23,0.09
2013-9-20,87.2,83.6,80.0,79.0,77.6,76.0,88,82,75,29.81,29.67,21,12,29,0.03
2013-9-21,81.0,76.3,74.3,77.0,71.2,68.0,93,84,71,29.78,29.67,25,11,33,0.14
2013-9-22,83.7,78.0,73.0,70.0,65.6,58.0,83,67,42,29.80,29.70,18,9,23,0.00
2013-9-23,84.4,78.9,73.6,74.0,71.1,67.0,86,77,69,29.77,29.69,13,6,20,0.00
2013-9-24,92.4,81.9,74.4,77.0,71.9,67.0,88,74,45,29.86,29.76,12,6,15,0.00
2013-9-25,90.0,81.7,75.1,76.0,72.7,70.0,90,75,54,29.86,29.76,12,6,16,0.00
2013-9-26,86.8,82.7,79.8,76.0,74.8,73.0,87,77,66,29.85,29.77,18,9,23,0.00
2013-9-27,87.7,84.1,81.8,80.0,77.9,75.0,86,81,75,29.87,29.79,21,13,24,0.00
2013-9-28,87.6,84.3,82.2,79.0,77.5,75.0,86,80,71,29.93,29.82,21,14,28,0.00
2013-9-29,87.6,81.2,76.7,76.0,74.8,73.0,90,81,66,29.98,29.84,15,6,21,0.17
2013-9-30,84.5,80.2,75.9,78.0,75.3,73.0,92,85,75,29.89,29.77,13,6,16,0.06
2013-10-1,86.8,82.6,78.4,78.0,76.4,74.0,91,81,73,29.87,29.79,22,11,26,0.00
2013-10-2,87.7,83.5,81.3,77.0,75.3,74.0,81,76,69,29.91,29.82,19,11,22,0.00
2013-10-3,86.7,82.9,78.7,76.0,73.8,72.0,88,74,66,29.90,29.82,16,10,21,0.08
2013-10-4,86.9,82.9,81.1,76.0,74.4,73.0,81,75,69,29.89,29.82,18,11,22,0.00
2013-10-5,86.3,82.6,78.4,77.0,75.2,73.0,88,78,71,29.90,29.81,15,7,19,0.00
2013-10-6,81.7,70.3,59.3,76.0,57.5,47.0,91,67,37,30.08,29.89,27,10,31,0.24
2013-10-7,80.9,73.0,65.5,57.0,51.2,41.0,70,48,25,30.14,30.02,12,6,15,0.00
2013-10-8,80.6,73.6,64.7,65.0,58.9,52.0,85,61,46,30.06,29.96,12,4,12,0.00
2013-10-9,83.5,78.7,75.0,67.0,63.3,60.0,67,60,51,30.01,29.92,15,8,21,0.00
2013-10-10,84.5,80.3,76.5,72.0,68.7,64.0,78,68,60,29.98,29.87,19,9,26,0.00
2013-10-11,85.2,81.8,79.4,78.0,75.7,71.0,88,82,75,29.89,29.80,24,12,26,0.00
2013-10-12,86.1,82.6,80.7,79.0,77.9,77.0,90,85,78,29.98,29.85,20,10,24,0.00
2013-10-13,85.5,80.5,74.6,78.0,75.5,72.0,92,84,75,30.07,29.95,18,9,23,0.19
2013-10-14,84.8,81.6,79.8,75.0,72.8,71.0,83,75,67,30.02,29.90,19,11,24,0.00
2013-10-15,84.8,81.4,79.6,73.0,71.9,71.0,78,73,64,29.94,29.83,19,11,24,0.00
2013-10-16,80.5,76.1,66.6,75.0,69.6,62.0,89,80,73,30.00,29.85,15,8,22,0.00
2013-10-17,75.3,69.6,64.9,67.0,61.4,57.0,86,75,61,30.05,29.92,16,9,21,0.00
2013-10-18,80.8,77.6,74.7,76.0,72.7,67.0,93,85,76,29.94,29.77,19,9,22,0.20
2013-10-19,78.7,68.3,62.2,76.0,59.5,50.0,93,75,48,30.09,29.84,22,11,31,0.03
2013-10-20,77.2,69.2,60.1,66.0,59.0,50.0,83,70,58,30.05,29.88,16,6,18,0.00
2013-10-21,79.0,75.1,69.2,74.0,69.7,66.0,93,83,72,29.93,29.82,24,6,27,0.74
2013-10-22,77.8,69.3,63.9,69.0,60.4,50.0,94,75,48,30.08,29.92,19,8,26,0.01
2013-10-23,78.2,70.0,62.6,58.0,52.6,39.0,80,57,25,30.16,30.06,13,3,15,0.00
2013-10-24,77.8,73.1,65.7,66.0,60.6,54.0,86,66,55,30.18,30.08,14,4,15,0.00
2013-10-25,80.3,76.7,73.7,69.0,65.5,61.0,75,68,62,30.24,30.15,20,9,22,0.00
2013-10-26,81.6,77.6,75.5,70.0,68.1,65.0,83,72,64,30.16,30.04,19,11,24,0.00
2013-10-27,82.1,76.9,71.5,72.0,70.7,69.0,92,81,67,30.05,29.95,13,6,18,0.12
2013-10-28,81.9,78.0,75.5,74.0,72.1,71.0,88,82,74,30.04,29.95,19,10,24,0.00
2013-10-29,82.3,78.8,76.5,75.0,73.3,72.0,90,83,75,30.05,29.94,22,12,25,0.00
2013-10-30,83.2,79.6,77.6,77.0,75.9,75.0,92,88,81,29.98,29.81,23,13,31,0.00
2013-10-31,84.4,79.8,76.1,77.0,75.4,70.0,93,86,73,29.85,29.75,20,9,32,0.40
2013-11-1,81.8,77.9,74.1,72.0,69.0,63.0,89,74,63,29.95,29.79,18,7,21,0.00
2013-11-2,76.1,70.0,64.5,72.0,46.1,36.0,89,44,24,30.21,29.96,25,13,34,0.01
2013-11-3,75.6,68.5,60.8,56.0,49.9,-99.9,69,53,43,30.18,29.99,18,-2,19,0.00
2013-11-4,77.6,74.2,68.4,69.0,62.8,55.0,81,68,53,30.02,29.90,11,5,16,0.00
2013-11-5,80.7,76.8,73.7,73.0,71.5,68.0,89,84,75,29.97,29.88,19,8,25,0.00
2013-11-6,82.7,74.2,61.1,74.0,69.5,55.0,91,85,74,30.19,29.93,26,9,31,0.08
2013-11-7,65.0,60.9,56.6,53.0,44.1,38.0,76,55,38,30.36,30.19,24,12,33,0.00
2013-11-8,68.7,63.5,57.2,58.0,53.3,46.0,78,69,57,30.30,30.12,21,10,24,0.00
2013-11-9,77.2,70.2,63.4,65.0,61.2,57.0,89,74,55,30.13,30.06,11,3,15,0.00
2013-11-10,72.5,68.1,64.3,67.0,61.6,55.0,93,80,56,30.24,30.10,16,8,25,0.02
2013-11-11,71.8,69.0,66.0,66.0,62.1,57.0,82,79,72,30.21,30.10,16,8,20,0.00
2013-11-12,71.9,65.4,56.6,64.0,56.9,46.0,90,75,55,30.49,30.14,31,14,34,0.00
2013-11-13,56.2,51.4,46.4,48.0,38.2,31.0,75,62,40,30.57,30.36,25,10,31,0.00
2013-11-14,68.2,60.1,51.0,59.0,51.2,39.0,90,73,63,30.35,30.00,13,6,18,0.00
2013-11-15,72.1,66.2,59.0,67.0,61.7,56.0,93,86,72,30.00,29.87,10,4,13,0.00
2013-11-16,76.7,72.2,68.0,73.0,69.8,66.0,95,92,87,29.89,29.76,13,6,21,0.00
2013-11-17,78.1,72.9,70.0,73.0,70.6,69.0,96,92,82,29.90,29.77,16,8,24,0.00
2013-11-18,77.0,72.0,68.7,74.0,70.1,66.0,97,94,85,30.01,29.89,18,6,24,0.00
2013-11-19,71.4,69.7,67.9,66.0,64.6,63.0,89,83,79,30.03,29.94,21,12,26,0.00
2013-11-20,77.9,73.0,69.8,73.0,70.0,67.0,94,90,83,29.95,29.83,15,7,19,0.00
2013-11-21,79.6,74.4,71.5,75.0,71.9,70.0,96,92,83,30.00,29.88,15,8,22,0.00
2013-11-22,77.4,60.0,43.0,75.0,58.5,42.0,97,95,91,30.27,29.99,25,9,35,0.10
2013-11-23,47.1,45.0,42.5,44.0,42.4,40.0,95,90,86,30.37,30.26,21,11,27,0.00
2013-11-24,47.9,46.0,42.8,47.0,42.1,39.0,95,86,76,30.37,30.25,22,11,26,0.06
2013-11-25,47.0,44.1,42.1,44.0,41.3,38.0,93,89,83,30.24,29.99,26,11,27,0.12
2013-11-26,49.7,45.5,42.9,41.0,38.6,36.0,92,77,60,30.33,30.08,27,13,36,0.03
2013-11-27,51.3,46.3,42.3,39.0,33.0,29.0,86,61,44,30.45,30.34,25,7,27,0.00
2013-11-28,56.9,51.2,43.4,52.0,43.1,31.0,91,74,62,30.41,30.31,14,8,20,0.00
2013-11-29,65.4,58.1,49.4,60.0,54.5,48.0,94,87,79,30.41,30.31,23,9,26,0.00
2013-11-30,72.0,66.4,62.2,62.0,59.8,58.0,89,80,67,30.33,30.18,10,5,15,0.00
2013-12-1,74.5,66.1,59.4,64.0,60.9,57.0,92,84,66,30.18,29.96,15,4,20,0.00
2013-12-2,73.6,65.1,58.0,64.0,61.6,57.0,96,89,71,29.96,29.72,16,6,20,0.00
2013-12-3,71.6,66.1,62.4,66.0,63.4,61.0,96,91,81,29.75,29.63,18,10,24,0.01
2013-12-4,72.7,68.0,65.5,69.0,66.3,64.0,97,94,87,29.78,29.67,18,10,24,0.00
2013-12-5,73.4,61.9,44.5,70.0,60.0,41.0,97,93,86,29.97,29.77,20,10,29,0.01
2013-12-6,47.3,42.1,37.6,41.0,37.1,32.0,91,82,72,30.35,29.95,19,11,27,0.00
2013-12-7,37.6,36.1,35.1,33.0,31.8,31.0,88,84,79,30.41,30.25,19,8,22,0.00
2013-12-8,47.4,41.7,36.2,45.0,38.5,33.0,93,88,83,30.24,30.03,14,7,15,0.00
2013-12-9,52.9,48.8,43.5,52.0,47.4,41.0,96,95,91,30.24,29.99,21,10,28,0.01
2013-12-10,46.9,43.0,38.3,41.0,33.0,30.0,94,69,52,30.46,30.25,24,10,34,0.00
2013-12-11,53.2,49.1,45.3,46.0,40.7,35.0,78,73,64,30.47,30.28,15,8,18,0.00
2013-12-12,53.9,50.6,46.3,44.0,40.7,39.0,78,69,58,30.53,30.30,18,8,27,0.00
2013-12-13,64.7,56.2,48.9,59.0,50.6,41.0,92,82,74,30.30,29.86,11,5,14,0.00
2013-12-14,69.0,57.4,47.3,54.0,47.6,39.0,89,72,39,30.29,29.86,23,9,26,0.00
2013-12-15,56.3,47.6,42.2,44.0,33.4,-99.9,88,63,41,30.42,30.29,19,-5,29,0.00
2013-12-16,61.0,52.1,42.4,52.0,45.0,39.0,92,78,48,30.34,30.22,8,2,11,0.00
2013-12-17,64.4,56.6,47.6,56.0,52.2,46.0,94,86,69,30.32,30.22,11,4,13,0.01
2013-12-18,68.2,61.2,52.4,59.0,55.3,51.0,94,82,63,30.27,30.07,10,3,13,0.00
2013-12-19,68.2,64.3,62.0,63.0,61.2,58.0,95,89,83,30.06,29.82,23,11,29,0.00
2013-12-20,69.1,65.0,61.6,66.0,63.6,60.0,97,95,88,29.84,29.65,23,13,31,0.01
2013-12-21,75.9,66.3,62.0,68.0,62.1,56.0,96,87,63,29.77,29.56,27,10,29,0.00
2013-12-22,70.9,62.4,49.3,58.0,49.9,36.0,86,66,35,30.30,29.77,22,10,31,0.01
2013-12-23,55.8,48.2,41.7,39.0,33.9,30.0,71,59,38,30.50,30.30,21,7,29,0.00
2013-12-24,61.2,54.7,45.5,52.0,44.9,35.0,84,70,59,30.50,30.24,12,6,16,0.00
2013-12-25,68.5,60.3,55.3,58.0,55.5,52.0,94,85,68,30.28,30.18,15,5,19,0.00
2013-12-26,57.7,54.9,51.9,56.0,50.6,47.0,94,85,73,30.34,30.25,22,11,24,0.07
2013-12-27,55.1,53.0,51.0,51.0,49.1,47.0,92,87,78,30.38,30.27,15,8,19,0.02
2013-12-28,58.3,52.9,50.3,49.0,43.1,35.0,86,71,43,30.28,30.03,9,4,12,0.00
2013-12-29,60.9,55.8,47.8,55.0,49.7,45.0,91,80,62,30.09,29.97,20,4,20,0.00
2013-12-30,58.5,45.1,41.8,54.0,39.4,37.0,85,80,74,30.38,30.07,26,10,29,0.06
2013-12-31,47.6,44.8,42.8,44.0,39.4,36.0,86,81,74,30.42,30.25,11,6,15,0.04
2014-1-1,56.1,51.3,47.7,54.0,48.6,44.0,95,90,87,30.25,29.99,8,4,13,0.01
2014-1-2,57.1,51.5,44.7,56.0,39.9,29.0,95,67,46,30.43,30.03,22,9,33,0.00